Temperature
15 15 15 15 16 16 16 16 16 16 16 16 16 16 16 16 16 16 16 15 15 15 15 15 15 15 15 15 15 15 15 15 15 15 15 15 15 15 15 15 15 15 15
15 15 15 15 15 16 16 16 16 16 16 16 15 15 15 15 15 15 15 15 15 15 15 15 15 15 15 15 15 15 15 15 15 15 15 15 15 15 15 15 15 15 15
15 15 15 15 15 15 15 15 15 15 15 15 15 15 15 15 15 15 15 15 15 15 15 15 15 15 15 15 15 15 15 15 15 15 15 15 15 15 15 15 15 15 15
15 15 15 15 15 15 15 15 15 15 15 15 15 15 15 15 15 15 15 15 15 15 15 15 15 15 15 14 14 14 15 15 15 15 15 15 14 14 14 15 15 15 15
15 15 15 15 15 15 15 15 15 15 15 15 15 15 15 15 15 15 15 14 14 14 15 15 14 14 14 14 14 14 14 14 14 14 14 14 14 14 14 14 14 14 14
15 14 14 14 15 15 15 15 15 15 15 15 15 15 14 14 15 14 14 14 14 14 14 14 14 14 14 14 14 14 14 14 14 14 14 14 14 14 14 14 14 14 14
14 14 14 14 14 14 14 14 15 15 15 15 14 14 14 14 14 14 14 14 14 14 14 14 14 14 14 14 14 14 14 14 14 14 14 14 14 14 14 14 14 14 14
14 14 14 14 14 14 14 14 14 14 14 14 14 14 14 14 14 14 14 14 14 14 14 14 14 14 14 14 14 14 14 14 14 14 14 14 14 14 14 14 14 14 14
14 14 13 13 13 13 14 14 14 14 14 14 13 14 14 14 14 14 14 14 14 14 14 14 14 13 13 14 14 14 14 14 14 14 14 14 13 13 13 14 13 13 13
13 13 13 13 13 13 13 13 13 13 13 13 13 13 13 13 13 13 14 14 14 14 14 13 13 13 13 13 13 13 13 13 13 13 13 13 13 13 13 13 13 13 13
13 13 13 13 13 13 13 13 13 13 13 13 13 13 13 13 13 13 13 13 13 13 13 13 13 13 13 13 13 13 13 13 13 13 13 13 13 13 13 13 13 13 13
12 12 12 12 12 12 12 12 12 12 12 12 12 12 12 12 12 13 13 13 13 13 13 13 13 13 13 13 13 13 13 13 13 13 13 13 13 13 13 13 13 13 13
12 12 12 12 12 12 12 12 12 12 12 12 12 12 12 12 12 12 12 12 12 13 13 13 12 13 13 13 13 13 13 13 13 13 13 12 13 13 12 12 12 12 12
11 11 11 11 11 11 11 12 12 12 12 12 12 12 12 12 12 12 12 12 12 12 12 12 12 12 12 12 12 12 12 12 12 12 12 12 12 12 12 12 12 12 12
11 11 11 11 11 11 11 11 11 11 11 11 11 11 11 12 12 12 12 12 12 12 12 12 12 12 12 12 12 12 12 12 12 12 12 12 12 12 12 12 12 12 12
10 11 11 11 11 11 11 11 11 11 11 11 11 11 11 11 11 11 11 11 11 11 11 11 11 11 11 12 12 12 12 12 12 12 12 12 12 12 12 12 12 12 11
10 10 10 10 10 10 10 10 10 10 11 11 11 11 11 11 11 11 11 11 11 11 11 11 11 11 11 11 11 11 11 11 11 11 11 11 11 11 11 11 11 11 11
9 10 10 10 10 10 10 10 10 10 10 10 10 10 10 10 10 11 11 11 10 10 10 10 10 10 11 11 11 11 11 11 11 11 11 11 11 11 11 11 11 11 11
9 9 9 9 9 9 10 10 10 10 10 10 10 10 10 10 10 10 10 10 10 10 10 10 10 10 10 10 10 10 10 10 10 10 11 11 11 11 11 11 11 11 11
8 8 8 9 9 9 9 9 9 9 9 9 9 9 9 9 9 10 10 10 10 10 10 10 10 9 9 10 9 9 10 10 10 10 10 10 10 10 10 10 10 10 10
8 8 8 8 8 8 8 9 9 9 9 9 9 9 9 9 9 9 9 9 9 9 9 9 9 9 9 9 9 9 9 9 9 10 10 10 10 10 10 10 10 10 10
7 7 7 7 7 7 7 8 8 8 8 8 8 8 8 8 8 8 9 9 9 9 9 9 9 9 9 9 9 8 8 9 9 9 9 9 10 9 9 9 10 10 10
5 6 6 6 6 6 7 7 7 7 8 8 8 8 8 8 8 8 8 8 8 9 9 9 9 9 9 8 8 8 8 8 8 9 9 9 9 9 9 9 9 9 9
4 5 5 5 5 6 6 6 6 6 7 7 7 7 7 7 7 7 7 8 8 8 8 8 8 8 8 8 8 8 8 8 8 8 8 8 8 8 9 9 9 9 9
3 4 4 5 5 5 5 5 5 6 6 6 6 6 7 7 7 7 7 7 7 8 8 8 8 8 8 8 8 8 8 8 8 8 8 8 8 8 8 8 8 8 8
3 3 4 4 4 4 4 5 5 5 5 5 6 6 6 6 6 6 6 7 7 7 7 7 7 7 8 8 8 8 8 8 8 8 8 8 8 8 8 8 8 8 8
Wind_Speed
4 6 11 11 10 10 11 11 11 11 11 11 11 11 11 11 11 11 11 10 10 10 10 11 11 12 12 13 13 14 14 14 14 14 14 14 14 15 15 15 14 14 16
7 9 12 12 11 11 11 11 11 10 10 10 10 10 10 10 10 10 10 9 9 9 10 10 11 11 11 12 12 13 13 14 14 14 14 13 13 14 15 14 14 13 15
8 10 12 12 11 11 11 11 10 10 10 10 10 10 10 10 10 10 9 9 9 9 10 10 10 10 10 11 11 12 13 13 13 12 12 11 12 13 14 14 14 15 15
9 10 11 12 12 11 11 11 10 10 9 9 9 9 9 9 9 9 9 9 9 9 9 9 9 9 9 10 10 11 11 11 11 10 9 9 9 12 13 14 14 14 14
8 10 11 12 11 11 11 10 10 9 9 8 8 8 8 8 8 8 9 9 9 9 9 9 9 8 8 8 9 10 11 10 9 9 9 8 9 11 13 13 13 13 14
7 9 11 12 11 11 11 10 9 9 8 8 7 7 7 7 7 7 8 8 8 8 9 9 8 8 7 8 9 10 10 9 9 9 8 8 9 11 12 13 12 12 12
7 8 10 11 11 11 10 9 9 8 7 7 6 6 6 7 7 7 8 8 8 8 8 8 8 8 7 7 8 9 9 10 10 9 8 8 9 11 12 12 11 11 11
7 7 9 10 10 10 9 9 8 8 7 6 6 6 6 6 6 7 7 7 7 7 7 8 7 7 7 7 8 8 8 9 8 8 7 7 9 10 11 11 10 10 10
7 6 6 8 8 9 8 8 8 7 6 6 6 6 6 5 5 6 6 7 6 7 7 7 6 6 6 6 7 7 8 8 8 7 6 6 8 9 10 10 10 10 9
6 5 4 5 6 6 6 7 7 6 6 5 5 6 5 5 5 5 5 6 6 6 6 6 6 6 6 6 6 7 7 7 7 6 6 6 8 9 10 10 9 9 9
4 3 4 4 4 5 5 6 6 6 5 5 5 5 5 4 4 4 5 6 6 6 6 5 5 5 5 5 5 6 6 5 6 5 6 7 8 9 10 10 9 9 9
3 2 2 3 3 3 4 4 4 4 4 4 4 4 3 3 3 3 4 5 5 5 5 5 4 5 5 4 4 4 4 5 5 4 5 7 8 9 9 9 9 9 9
3 2 1 2 2 2 2 3 3 3 3 3 4 4 3 3 2 3 3 3 4 4 4 3 3 3 4 4 3 3 4 4 4 4 5 7 8 8 9 9 9 9 9
2 2 2 2 2 2 2 2 2 3 3 2 3 4 4 3 3 2 2 2 3 3 3 3 3 3 4 4 4 4 3 3 3 4 5 6 7 8 8 8 9 9 9
2 2 2 3 2 2 2 1 2 2 2 3 3 3 4 3 2 2 1 2 2 3 4 3 3 3 3 3 3 3 3 3 3 4 4 6 7 8 8 8 8 9 9
1 2 2 3 3 2 2 2 1 1 2 2 2 3 4 4 3 2 1 1 1 3 4 4 4 3 3 3 3 3 3 3 4 4 4 5 6 7 8 8 8 8 9
1 1 2 3 2 2 2 2 1 2 2 1 1 3 3 3 3 3 2 1 1 3 3 3 3 3 2 2 2 2 3 3 4 4 4 4 5 5 6 7 7 8 9
1 1 2 1 2 2 1 1 1 1 2 2 2 2 3 3 4 3 2 2 2 3 3 3 2 2 2 1 1 1 2 3 3 4 4 5 5 4 4 5 6 8 8
1 1 1 1 2 2 2 1 1 1 2 2 2 2 2 3 3 3 2 2 3 3 2 3 2 2 2 2 2 1 1 1 2 3 4 4 4 4 4 4 5 6 8
3 2 2 1 1 1 1 1 0 0 1 1 2 2 3 3 3 3 2 3 3 2 2 2 3 2 2 2 2 1 1 0 1 2 2 3 3 4 4 4 4 4 6
7 6 4 3 2 0 0 1 1 2 2 2 2 3 3 3 3 3 2 2 3 3 3 3 3 3 1 2 2 1 2 1 1 1 1 2 2 2 3 3 4 3 3
7 7 6 5 3 2 2 2 2 2 3 3 2 3 3 3 4 3 3 3 3 3 3 3 3 2 1 2 2 2 0 1 2 1 0 1 1 2 2 3 4 4 3
8 7 6 6 5 4 3 1 1 0 1 1 2 2 2 4 4 4 3 3 3 3 4 4 4 4 3 1 2 3 3 3 1 1 1 1 1 1 1 2 2 3 3
7 6 6 7 6 6 4 2 1 2 3 3 3 3 3 3 4 4 4 4 4 3 4 4 4 3 5 4 2 1 2 3 2 1 1 1 1 1 2 1 2 3 3
7 6 6 7 7 6 5 4 3 3 3 2 2 3 3 3 4 4 4 4 4 3 4 4 3 3 3 4 3 2 1 1 1 2 2 2 1 2 2 2 2 3 4
8 8 8 7 7 7 6 4 4 3 3 2 2 3 3 3 3 3 4 4 4 3 4 4 4 4 3 3 3 3 3 3 3 3 3 3 2 2 2 2 3 3 4
Wind_Direction
172 163 143 136 130 126 121 116 112 108 107 106 106 107 106 103 101 101 101 103 103 102 100 98 95 92 92 92 91 92 94 94 93 92 91 93 95 98 97 93 90 89 91
159 153 143 136 129 123 119 116 113 110 109 109 108 110 111 110 107 105 104 106 106 105 103 100 99 97 95 96 96 96 96 95 94 93 89 88 93 99 100 97 94 96 94
140 145 141 135 130 124 118 114 113 110 109 108 109 110 110 112 111 109 108 109 107 104 103 101 102 100 99 99 101 100 98 98 95 94 93 91 96 103 103 100 98 98 97
137 141 140 135 130 124 119 115 113 108 105 106 107 110 109 110 112 110 109 109 107 105 103 103 103 102 103 105 106 105 102 101 96 94 94 95 100 108 106 103 100 100 99
128 137 140 137 133 127 123 119 116 112 107 104 107 108 111 112 113 113 109 106 106 108 105 103 105 106 107 110 109 107 105 98 99 97 94 98 102 109 106 104 103 102 100
125 132 143 141 137 132 127 124 121 118 114 109 106 108 111 111 112 113 110 108 108 109 108 105 106 108 109 111 111 108 102 99 104 98 95 105 110 111 110 108 106 105 104
130 133 142 140 140 137 133 131 129 126 123 117 113 111 113 112 112 115 111 110 112 113 115 112 108 106 109 112 115 110 104 106 109 102 97 110 116 113 113 113 110 109 108
131 132 144 143 138 140 137 136 133 128 127 124 119 118 112 114 117 122 119 114 116 116 119 120 115 107 102 105 111 110 112 115 114 107 103 117 121 118 119 119 117 116 115
115 115 126 136 137 138 141 137 136 134 131 125 120 118 112 107 118 126 129 127 122 122 121 120 118 114 105 104 106 106 106 115 115 117 118 126 129 124 123 123 122 124 121
100 101 105 114 123 128 132 134 129 132 134 128 123 123 118 114 115 129 133 134 130 125 126 127 122 114 107 103 106 107 106 111 112 117 125 133 134 128 126 126 126 129 127
94 95 101 101 109 123 130 132 126 119 117 120 121 125 117 114 115 124 136 135 134 131 132 130 126 117 109 104 103 102 105 110 117 118 130 138 140 136 132 132 129 129 128
139 129 114 112 105 115 134 126 122 119 109 103 111 118 112 112 118 128 138 141 138 135 140 137 128 119 110 98 95 99 108 118 126 130 141 143 147 146 141 135 133 135 131
172 151 133 118 104 107 106 123 115 112 107 97 102 114 113 101 95 99 115 129 135 136 130 129 117 116 114 111 110 113 116 119 136 146 150 147 150 152 148 144 141 140 139
172 180 164 124 113 109 107 109 123 120 112 103 108 111 109 99 91 98 108 131 136 140 130 124 118 120 119 121 124 117 115 125 138 149 153 155 157 162 158 154 151 146 143
176 183 172 143 133 122 103 98 115 127 135 139 134 128 123 116 111 108 113 133 151 151 146 137 131 131 125 123 127 121 114 122 138 148 157 162 166 173 172 167 161 157 153
218 207 185 163 152 132 122 119 136 148 152 145 146 153 143 136 132 132 130 133 161 168 164 152 151 147 139 130 130 129 121 127 135 139 146 157 166 172 176 175 172 169 168
245 220 189 179 152 143 144 149 149 157 149 139 167 171 159 152 152 152 154 162 175 170 156 141 140 134 138 137 146 138 127 123 130 137 143 145 153 166 173 179 181 179 176
274 232 212 191 173 163 152 157 166 171 158 161 180 180 169 166 169 158 165 183 178 158 146 143 154 144 145 147 153 163 127 126 132 138 142 146 148 156 168 178 185 183 182
333 257 242 215 193 191 176 162 178 180 178 184 183 183 182 168 170 161 174 182 173 149 146 164 152 156 154 149 146 149 133 130 145 138 136 144 151 156 164 177 183 190 189
6 10 6 319 223 208 155 138 170 209 259 223 205 206 197 188 186 173 174 173 161 159 160 159 149 146 158 161 134 85 21 262 128 150 164 149 151 163 170 173 178 192 195
16 11 360 4 339 239 205 198 208 233 243 250 241 219 206 203 201 189 187 176 174 181 176 162 151 149 144 144 115 60 4 352 282 230 174 148 138 152 159 169 172 175 195
11 4 2 351 336 316 262 232 219 223 229 235 246 231 214 214 212 207 191 188 186 180 166 162 151 161 165 158 143 136 43 340 327 291 231 173 163 134 144 167 169 172 175
5 359 353 350 342 331 327 313 328 303 283 260 257 231 245 231 222 214 206 193 192 184 179 179 175 173 179 193 171 165 171 209 249 312 283 222 180 162 178 171 179 192 194
350 349 356 354 350 342 337 331 304 240 248 258 236 234 244 240 232 219 209 204 201 196 187 188 181 180 174 187 211 221 201 171 176 219 296 283 237 213 218 206 201 212 212
350 351 353 354 351 347 343 331 302 283 266 275 244 232 231 237 232 226 213 208 205 201 194 192 183 184 187 189 191 193 197 213 192 187 224 255 283 259 238 222 207 211 216
357 356 355 354 346 343 347 337 321 294 283 270 263 242 240 234 233 230 223 214 210 203 196 196 189 190 197 195 194 189 186 188 190 185 207 218 238 259 252 236 218 216 221
Height
1530 1532 1533 1534 1535 1536 1537 1538 1538 1539 1540 1540 1541 1541 1541 1542 1542 1542 1542 1543 1543 1544 1544 1545 1545 1545 1546 1546 1546 1547 1547 1547 1548 1548 1548 1549 1549 1550 1550 1550 1550 1551 1551
1530 1531 1533 1534 1535 1536 1537 1538 1539 1539 1540 1540 1541 1541 1542 1542 1542 1543 1543 1544 1544 1545 1545 1545 1546 1546 1546 1547 1547 1548 1548 1548 1549 1549 1550 1550 1551 1551 1551 1552 1552 1552 1552
1530 1531 1533 1534 1535 1536 1537 1538 1539 1539 1540 1541 1541 1541 1542 1542 1543 1543 1543 1544 1544 1545 1546 1546 1547 1547 1547 1548 1548 1549 1549 1549 1550 1551 1551 1551 1552 1553 1553 1553 1554 1554 1554
1530 1531 1532 1534 1535 1536 1537 1538 1538 1539 1540 1540 1541 1541 1542 1542 1543 1543 1544 1544 1545 1545 1546 1546 1547 1547 1548 1548 1549 1549 1550 1550 1551 1552 1552 1553 1553 1554 1554 1555 1555 1555 1556
1530 1531 1532 1533 1535 1536 1537 1537 1538 1539 1539 1540 1541 1541 1542 1542 1543 1543 1544 1544 1545 1545 1546 1546 1547 1548 1548 1549 1550 1550 1551 1551 1552 1552 1553 1554 1554 1555 1555 1556 1556 1557 1557
1530 1531 1532 1533 1534 1535 1536 1537 1538 1538 1539 1540 1540 1541 1542 1542 1543 1543 1544 1544 1545 1545 1546 1546 1547 1548 1549 1549 1550 1551 1551 1552 1552 1553 1554 1555 1555 1556 1556 1556 1557 1558 1558
1529 1531 1532 1533 1534 1535 1536 1537 1537 1538 1539 1539 1540 1540 1541 1542 1542 1543 1543 1544 1545 1545 1545 1546 1547 1548 1549 1550 1550 1551 1551 1552 1553 1554 1555 1555 1556 1556 1557 1557 1558 1558 1559
1529 1530 1531 1532 1533 1534 1535 1536 1537 1537 1538 1538 1539 1540 1540 1541 1542 1542 1543 1543 1544 1545 1545 1546 1547 1548 1548 1549 1550 1551 1552 1553 1553 1554 1555 1556 1556 1557 1557 1558 1558 1559 1559
1528 1529 1530 1532 1532 1533 1534 1535 1536 1537 1537 1537 1538 1539 1539 1540 1541 1541 1542 1543 1543 1544 1545 1546 1546 1547 1548 1549 1550 1551 1552 1553 1554 1554 1555 1556 1557 1557 1558 1558 1558 1559 1560
1528 1529 1529 1531 1532 1532 1533 1534 1535 1535 1536 1537 1537 1538 1539 1539 1540 1541 1541 1542 1543 1543 1544 1545 1546 1547 1548 1548 1549 1550 1551 1552 1553 1554 1555 1556 1557 1557 1558 1558 1558 1559 1560
1527 1527 1528 1529 1530 1531 1532 1533 1534 1534 1535 1536 1536 1537 1537 1538 1539 1540 1540 1541 1542 1542 1543 1544 1545 1546 1547 1548 1549 1550 1551 1551 1553 1554 1555 1556 1556 1557 1557 1558 1558 1559 1559
1525 1526 1527 1528 1529 1530 1531 1532 1532 1533 1533 1534 1535 1535 1536 1537 1537 1538 1539 1540 1541 1541 1542 1543 1544 1545 1546 1547 1548 1549 1550 1551 1552 1553 1554 1555 1556 1557 1557 1558 1558 1559 1559
1524 1525 1526 1527 1528 1528 1529 1530 1531 1531 1532 1532 1533 1534 1534 1535 1536 1537 1537 1538 1539 1540 1541 1542 1543 1543 1545 1546 1547 1548 1549 1550 1551 1552 1553 1554 1555 1556 1557 1557 1558 1559 1559
1523 1523 1524 1525 1526 1527 1528 1528 1529 1529 1530 1530 1531 1532 1532 1533 1534 1535 1535 1536 1537 1538 1539 1540 1541 1542 1543 1544 1545 1546 1547 1548 1549 1550 1552 1553 1554 1555 1556 1557 1557 1558 1559
1521 1521 1522 1523 1524 1525 1526 1526 1527 1527 1528 1528 1529 1530 1530 1531 1532 1532 1533 1534 1535 1536 1537 1538 1539 1540 1541 1542 1543 1544 1545 1546 1547 1549 1550 1551 1553 1554 1555 1556 1557 1557 1558
1519 1519 1520 1521 1522 1523 1524 1524 1525 1526 1526 1527 1527 1528 1528 1529 1530 1530 1531 1532 1533 1534 1535 1536 1537 1538 1540 1541 1542 1543 1544 1545 1546 1547 1548 1549 1551 1552 1553 1554 1555 1556 1557
1517 1517 1518 1519 1520 1520 1521 1522 1523 1523 1524 1524 1525 1525 1526 1527 1527 1528 1529 1530 1531 1532 1533 1534 1535 1536 1538 1539 1540 1541 1542 1543 1544 1545 1546 1547 1549 1550 1552 1553 1554 1555 1555
1514 1515 1515 1516 1517 1517 1518 1519 1520 1521 1521 1522 1522 1523 1523 1524 1525 1526 1527 1527 1528 1529 1530 1532 1533 1534 1535 1536 1537 1539 1540 1541 1542 1543 1544 1545 1547 1548 1549 1550 1552 1553 1554
1512 1512 1512 1513 1514 1514 1515 1516 1517 1518 1518 1519 1519 1520 1520 1521 1522 1523 1524 1525 1526 1527 1528 1529 1530 1532 1532 1534 1535 1536 1537 1539 1540 1541 1542 1543 1544 1546 1547 1548 1549 1551 1552
1510 1510 1510 1510 1511 1511 1512 1513 1513 1514 1515 1516 1516 1517 1517 1518 1519 1520 1521 1522 1523 1524 1525 1526 1528 1529 1531 1531 1533 1534 1535 1536 1537 1538 1539 1541 1542 1543 1545 1546 1547 1548 1549
1507 1507 1508 1508 1507 1508 1508 1508 1509 1510 1511 1512 1513 1513 1514 1515 1516 1517 1518 1519 1520 1521 1522 1523 1525 1526 1528 1529 1531 1532 1533 1534 1535 1536 1537 1538 1539 1541 1542 1543 1544 1545 1546
1505 1505 1505 1505 1505 1505 1505 1505 1505 1507 1507 1508 1509 1510 1510 1511 1512 1514 1515 1515 1516 1518 1518 1520 1521 1523 1525 1527 1528 1529 1530 1532 1532 1533 1534 1535 1536 1537 1539 1540 1541 1542 1543
1504 1503 1503 1502 1502 1502 1502 1502 1502 1503 1503 1504 1505 1505 1506 1508 1509 1510 1511 1512 1513 1514 1515 1516 1518 1520 1521 1523 1525 1527 1528 1527 1529 1530 1531 1532 1533 1534 1535 1537 1538 1539 1540
1503 1502 1501 1500 1500 1500 1499 1499 1498 1498 1498 1499 1500 1501 1502 1504 1505 1506 1507 1508 1509 1510 1511 1513 1515 1516 1518 1519 1522 1523 1525 1525 1526 1526 1528 1529 1530 1531 1532 1533 1534 1535 1536
1502 1501 1499 1498 1498 1497 1497 1496 1495 1495 1495 1496 1496 1497 1498 1500 1501 1502 1503 1504 1505 1507 1508 1509 1511 1513 1514 1516 1517 1519 1521 1522 1522 1523 1523 1525 1526 1528 1529 1530 1530 1531 1532
1501 1499 1497 1496 1495 1494 1493 1493 1492 1492 1492 1492 1492 1492 1493 1494 1496 1497 1498 1500 1501 1503 1504 1505 1506 1509 1510 1512 1514 1515 1516 1518 1518 1519 1520 1521 1522 1524 1525 1526 1527 1528 1529